Location: ICStars Ranch
(38.8297°N, 93.7687°W)
Time: 04:05:22
(UTC-06:00)

Daily predictions for brighter satellites

Satellite Brightness Start Highest point End
(mag) Time Altitude Azimuth Time Altitude Azimuth Time Altitude Azimuth
Cosmos 2237 Rocket 3.9 04:22:48 27° SE 04:22:48 27° SE 04:25:24 10° SE
SL-16 R/B 3.9 04:22:48 26° NE 04:23:38 27° ENE 04:28:23 10° ESE
Cosmos 2297 Rocket 3.6 04:33:23 32° NE 04:33:23 32° NE 04:36:21 10° NNE
Cosmos 2227 Rocket 3.9 04:46:53 23° NNE 04:46:53 23° NNE 04:48:58 10° NNE
BREEZE-M DEB (TANK) 4.4 04:52:33 41° SE 04:52:33 41° SE 04:54:34 10° SE
Thor Agena Rocket 4.3 05:01:38 10° S 05:04:59 41° S 05:04:59 41° S
Tsikada Rocket 3.9 05:04:34 25° N 05:08:32 88° W 05:14:51 10° S
Cosmos 2333 Rocket 3.9 05:21:27 19° SSW 05:21:27 19° SSW 05:23:11 10° SSW
SKYMED 2 3.7 05:22:06 10° SSE 05:26:24 72° ENE 05:28:08 35° N
Cosmos 968 Rocket 3.5 05:21:25 10° SSW 05:26:40 81° ESE 05:31:58 10° NNE
GPS 2-05 Rocket1 4.2 05:31:03 31° SSE 05:31:03 31° SSE 05:33:37 10° E
Cosmos 1725 Rocket 4.1 05:25:52 10° SSW 05:31:52 49° WNW 05:37:57 10° N
NOAA 6 3.9 05:29:58 10° N 05:35:09 68° WNW 05:40:17 10° SSW
SL-24 R/B 4.5 05:30:23 10° N 05:35:13 84° WNW 05:41:00 10° SSW
USA 229 DEB 3.8 05:38:23 31° NW 05:41:57 64° WSW 05:49:05 10° SSE
USA 229 3.8 05:38:26 31° NW 05:42:03 65° WSW 05:49:11 10° SSE
Cosmos 1328 3.7 05:40:34 32° N 05:42:21 87° E 05:46:20 10° S
Cosmos 304 Rocket 3.6 05:43:29 34° NNW 05:45:33 73° WSW 05:50:18 10° S
Cosmos 2221 3.4 05:44:06 10° SSE 05:48:18 50° E 05:52:29 10° NNE
ISS -3.2 05:48:48 60° N 05:49:03 63° NE 05:52:15 10° ESE
OAO 2 Rocket 3.6 05:48:32 35° WSW 05:50:17 53° S 05:55:04 10° ESE
CSL-04 Rocket 3.8 05:49:13 10° NNE 05:54:31 72° ESE 05:59:46 10° S
Cosmos 2227 4.3 05:49:29 10° SSW 05:55:04 77° ESE 06:00:42 10° NNE
Genesis I 4.5 05:53:49 16° N 05:56:31 38° NE 06:00:10 10° ESE
Cosmos 540 Rocket 4.4 05:57:07 27° WSW 05:57:07 27° WSW 06:00:49 10° SSW
Cosmos 2058 3.1 05:53:11 10° N 05:57:18 71° E 06:01:26 10° SSE
Aureole 2 Rocket 3.8 06:00:00 29° WSW 06:00:00 29° WSW 06:03:09 10° SSW
Cosmos 1777 Rocket 4.0 05:55:09 10° SSW 06:00:22 85° ESE 06:05:36 10° NNE
Cosmos 2237 Rocket 3.7 06:04:42 17° WSW 06:04:42 17° WSW 06:07:06 10° SW
Cosmos 1743 Rocket 4.4 06:05:12 29° W 06:05:12 29° W 06:08:47 10° SSW
DELTA 2 R/B (1) 4.2 06:02:15 12° SW 06:07:11 53° SSE 06:12:36 10° E
SL-16 R/B 2.6 06:04:45 22° NW 06:07:51 41° WSW 06:13:07 10° S
TELKOM 3 3.3 06:09:30 50° NW 06:09:34 50° NW 06:11:47 10° NE
Cosmos 1703 3.9 06:07:42 10° N 06:11:35 58° E 06:15:27 10° SSE
PSLV R/B 3.2 06:11:31 28° WSW 06:13:10 82° SSE 06:16:32 10° ENE
Cosmos 1842 Rocket 4.3 06:10:01 10° SW 06:13:45 28° WNW 06:17:32 10° NNW
COSMO-SKYMED 1 3.3 06:10:38 10° SSW 06:14:30 31° W 06:16:42 20° NW
Cosmos 2297 Rocket 3.5 06:15:15 19° NW 06:15:16 19° NW 06:19:12 10° N
Helios 1B rocket 4.3 06:13:43 10° SE 06:17:20 30° ENE 06:20:56 10° N
IDEFIX/ARIANE 42P 3.3 06:12:12 10° NNE 06:17:25 58° E 06:22:35 10° S
ERBS 2.4 06:18:03 21° NW 06:20:13 76° NE 06:23:37 10° SE
Cosmos 2151 3.3 06:16:23 10° NNW 06:20:24 42° W 06:24:24 10° SSW
Meteor 1-4 Rocket 4.4 06:22:58 16° NW 06:22:58 16° NW 06:24:07 10° NNW
Cosmos 1356 Rocket 3.7 06:17:40 10° N 06:21:46 68° E 06:25:53 10° SSE
Cosmos 2344 4.5 06:15:49 10° S 06:23:15 54° ESE 06:31:15 10° NE
USA 234 3.7 06:17:09 10° ESE 06:23:34 59° NE 06:30:00 10° NW
Cosmos 1805 Rocket 3.6 06:20:08 10° N 06:24:34 86° E 06:28:57 10° S
Cosmos 1340 Rocket 2.9 06:20:51 10° NNW 06:24:42 53° W 06:28:32 10° S
Cosmos 1271 Rocket 3.2 06:22:22 10° SW 06:25:56 36° WNW 06:29:28 10° N
Meteor 1-11 4.4 06:20:49 10° NNW 06:26:27 53° W 06:32:02 10° S
Cosmos 1538 Rocket 4.4 06:22:18 10° NNW 06:27:26 45° WSW 06:32:30 10° S
Meteor 1-28 Rocket 4.0 06:24:31 10° SSW 06:27:51 30° W 06:30:52 12° NW
Cosmos 2227 Rocket 4.0 06:28:46 11° NW 06:28:46 11° NW 06:30:11 10° NNW
BREEZE-M DEB (TANK) 4.4 06:31:02 11° NNW 06:32:27 13° N 06:33:44 10° NE
SL-14 R/B 4.3 06:31:21 10° NNW 06:34:48 27° W 06:38:14 10° SSW
Cosmos 923 Rocket 4.0 06:29:45 10° NNW 06:35:00 88° WSW 06:40:16 10° SSE
NOSS 3-1 (C) 4.1 06:29:14 10° NW 06:36:53 68° WSW 06:45:12 10° SSE
Ariane Rocket 3.5 06:32:53 10° N 06:37:31 36° WNW 06:42:09 10° SW
Cosmos 1484 Rocket 4.4 06:36:48 10° NNE 06:40:38 41° E 06:44:23 10° S
Cosmos 2034 Rocket 4.0 06:34:32 10° SSW 06:40:40 69° W 06:46:55 10° N
SJ-12 3.8 06:36:55 10° N 06:40:59 68° WNW 06:45:00 10° SSW
Cosmos 292 Rocket 3.8 06:36:28 10° NNW 06:41:16 88° WSW 06:46:04 10° SSE
Cosmos 1626 2.0 06:39:06 10° NNW 06:42:50 72° W 06:46:33 10° S
Cosmos 1680 Rocket 3.6 06:38:34 10° NNW 06:43:55 84° ENE 06:49:14 10° SSE
IRS-1A Rocket 4.4 06:39:36 10° N 06:45:26 63° WNW 06:51:09 10° SSW
Sich 1 3.0 06:45:19 10° N 06:49:42 78° W 06:53:59 10° S
Nadezhda 4 Rocket 4.1 06:43:46 10° N 06:50:08 89° W 06:56:26 10° S
Cosmos 1943 3.5 06:45:11 10° NNW 06:50:55 73° ENE 06:56:34 10° SSE
SMAP 3.0 06:46:29 10° N 06:51:08 74° WNW 06:55:46 10° SSW
Cosmos 1633 Rocket 3.0 06:47:37 10° N 06:51:59 84° W 06:56:19 10° S
Cosmos 389 Rocket 2.5 06:49:19 10° SSW 06:52:58 79° W 06:56:40 10° N
Cosmos 1328 Rocket 3.8 06:50:06 10° S 06:54:24 75° E 06:58:45 10° N
CZ-2C R/B 2.3 06:50:47 10° N 06:55:17 56° WNW 06:59:44 10° SSW
CZ-4 R/B 1.7 06:53:19 10° N 06:57:10 43° WNW 07:01:04 10° SW
Tiangong 2 2.2 06:54:23 10° SW 06:57:23 45° SSE 07:00:25 10° ENE
Cosmos 1515 Rocket 4.1 06:56:25 10° S 07:00:45 64° E 07:05:09 10° NNE
CORIOLIS 4.2 07:01:18 10° N 07:06:42 70° WNW 07:12:05 10° SSW
Cosmos 1092 Rocket 4.1 07:00:35 10° N 07:06:55 89° E 07:13:08 10° S
